Temp
69 69 68 70 72 73 73 74 74 74 74 75 75 75 73 72 68 64 64 66 68 71 74 72 73 75 75 72 73 71 73 68 65 71 71 71 71 59 55 55 57 56 55 56 55 53 53 53 54 56 57 58 58 58 57 56 55 54 56 58 58 56 56 55 54 58 60 62 59 57 56 55 56 56
70 70 70 70 71 73 72 73 73 72 72 73 74 74 76 75 71 69 66 67 71 71 72 75 74 73 74 73 71 72 73 63 66 73 73 71 71 56 54 54 53 53 54 53 53 51 52 54 55 58 57 58 57 55 55 54 53 54 56 59 59 56 57 55 55 58 59 59 57 56 55 55 55 55
69 68 69 70 70 71 70 72 72 71 72 72 74 74 75 75 74 72 71 68 71 74 69 73 77 74 74 74 72 71 73 67 66 71 71 73 62 56 60 53 53 53 53 51 52 52 52 52 53 55 57 57 57 56 56 55 54 56 58 56 56 57 57 56 56 59 60 59 58 58 57 56 56 57
67 66 65 67 70 71 70 70 71 71 72 72 74 74 74 74 73 73 72 69 69 71 73 74 74 75 73 74 72 71 72 68 59 72 70 71 57 66 70 54 53 53 52 51 52 56 54 51 53 54 55 56 57 57 57 56 56 56 54 54 54 56 56 56 56 59 60 60 59 59 58 57 57 57
66 66 67 68 70 71 70 72 72 72 72 72 73 74 74 73 73 73 71 70 70 69 70 72 74 74 73 71 73 73 71 69 68 65 71 70 68 70 71 71 54 51 51 50 50 50 50 50 54 55 54 55 54 55 54 54 54 53 51 51 51 52 55 56 55 56 60 60 59 58 58 57 57 57
66 67 68 71 71 72 72 72 74 73 73 74 74 74 74 74 73 73 73 72 71 69 67 69 73 71 72 73 73 72 70 70 70 70 70 70 71 72 72 73 71 51 52 50 49 49 49 49 50 50 50 49 50 51 51 50 49 52 50 47 48 52 54 56 55 54 56 58 58 58 57 57 57 57
68 68 69 71 71 70 70 70 71 72 73 75 75 74 75 74 74 75 75 73 70 70 69 69 71 70 70 71 73 73 73 72 72 71 72 72 72 72 71 72 75 52 51 49 50 49 49 49 49 48 49 49 48 49 50 49 49 48 49 47 48 48 50 51 53 53 54 56 57 57 56 56 57 57
70 70 70 70 70 69 69 68 68 70 71 71 74 74 73 73 73 72 72 73 71 71 69 68 74 73 69 70 74 74 74 71 70 72 74 73 73 73 72 72 74 62 50 50 50 50 50 49 49 48 48 49 49 48 48 49 49 48 49 48 48 48 48 48 48 49 52 55 56 56 55 55 57 58
71 71 71 72 70 69 69 68 69 69 69 72 72 73 74 74 73 72 71 73 73 68 69 69 71 72 72 74 73 74 72 71 71 72 71 72 73 72 73 74 73 60 50 51 50 50 50 49 48 48 49 49 48 48 48 49 49 49 49 49 48 48 48 47 48 48 49 49 50 55 56 55 57 59
72 71 72 72 71 70 69 69 69 70 69 71 71 73 74 75 73 70 71 71 71 71 71 71 67 68 70 70 70 72 71 71 71 71 71 71 71 71 70 71 72 73 72 69 66 55 53 50 47 50 50 49 48 48 49 49 49 49 49 49 49 49 48 48 48 47 47 48 48 50 54 56 56 58
72 72 72 71 70 70 69 68 68 69 69 69 70 71 71 74 72 70 70 72 70 70 70 71 71 69 70 70 68 71 71 71 72 69 68 67 72 70 69 69 72 71 71 65 57 61 61 58 62 54 49 49 50 50 50 50 50 50 49 49 48 48 48 48 48 48 47 48 48 48 48 51 55 58
71 69 69 68 69 72 70 69 68 68 69 69 67 68 71 72 70 70 70 70 70 70 69 66 63 68 67 66 68 71 69 68 69 71 70 68 69 69 69 69 70 71 70 70 72 61 58 57 55 50 51 50 50 51 51 51 51 50 49 49 48 48 48 48 48 48 48 48 47 47 47 46 48 54
69 67 67 69 70 70 66 61 61 60 60 63 63 67 70 70 70 70 71 69 69 67 63 62 62 65 66 66 64 64 65 66 69 69 69 68 72 73 71 71 72 73 71 71 73 73 71 71 71 74 73 72 60 60 52 57 54 51 50 49 48 48 48 48 48 48 48 48 48 47 47 46 46 47
68 68 67 69 64 61 58 54 51 50 53 57 64 68 69 69 69 69 69 69 68 64 62 65 62 62 64 66 65 65 67 69 70 68 66 66 70 69 69 70 71 71 70 70 70 73 74 71 72 74 73 74 70 72 70 71 66 59 51 49 49 49 48 48 48 48 48 48 48 47 47 46 46 45
68 68 69 70 65 61 58 57 48 49 49 50 51 54 58 62 70 69 67 68 68 66 66 67 61 62 63 66 68 68 69 68 68 68 68 68 68 67 67 67 68 69 70 68 69 71 72 71 72 75 75 73 73 73 72 60 54 51 50 49 49 48 48 48 47 47 47 47 47 47 46 46 46 45
70 70 69 69 67 65 65 66 58 53 47 46 46 45 46 48 50 53 66 69 67 67 67 67 66 66 66 69 68 68 68 67 67 67 67 67 67 67 67 68 68 68 68 68 68 69 70 71 71 70 73 74 72 72 61 52 50 49 48 48 48 48 47 47 47 47 47 46 46 46 46 46 45 45
69 69 70 67 66 68 59 62 64 62 57 45 42 43 43 43 44 45 43 47 65 71 67 67 68 69 68 66 67 68 67 68 66 66 66 66 66 68 67 69 69 66 68 68 67 68 71 70 70 70 72 72 70 68 56 49 47 47 47 46 46 46 46 46 46 46 45 45 45 45 45 45 45 44
69 68 68 67 65 65 65 66 64 63 62 61 60 62 64 62 52 44 42 42 42 54 66 66 65 65 65 65 67 67 67 66 66 66 66 66 66 65 67 68 68 67 68 67 68 66 70 70 69 66 68 70 68 69 57 48 48 46 45 46 45 45 45 46 45 45 45 45 45 45 45 44 44 44
68 67 66 64 62 65 66 65 63 64 64 64 63 62 61 61 60 59 61 62 64 64 65 67 65 61 62 63 63 65 66 67 68 68 68 67 67 67 66 66 65 66 67 66 65 64 69 64 63 66 69 69 68 69 53 45 47 46 46 45 45 45 45 45 44 44 44 45 45 44 44 43 43 43
66 67 66 65 64 65 65 55 50 56 65 64 62 60 60 59 57 53 46 42 48 59 63 62 61 58 52 49 57 59 64 66 65 65 67 67 66 66 66 65 64 63 63 62 63 62 65 64 63 66 68 68 68 69 70 49 45 45 45 45 45 44 44 44 44 44 44 44 44 44 44 43 42 42
62 63 64 64 64 64 65 51 46 48 54 64 63 61 59 58 58 55 51 43 41 41 41 40 40 40 40 41 41 41 41 54 62 68 65 63 66 65 65 61 60 58 58 60 62 62 63 65 64 65 67 66 65 67 66 65 49 45 45 45 44 44 44 44 44 44 44 44 44 44 43 43 43 42
61 57 50 58 63 63 62 44 45 46 58 64 63 61 59 58 56 55 55 54 49 42 42 42 42 42 42 43 43 42 44 45 52 65 61 57 58 56 56 56 57 58 60 57 59 60 63 64 65 63 66 66 66 65 65 64 60 48 49 43 42 44 44 43 44 44 44 44 44 44 43 42 43 49
59 58 53 46 54 60 52 41 44 45 57 64 63 62 61 59 57 56 58 57 57 58 59 58 57 54 51 54 54 51 45 46 50 57 56 57 59 61 60 58 59 59 57 57 59 59 62 61 63 61 59 59 63 64 64 65 65 64 64 64 59 44 46 44 45 43 44 43 43 43 43 42 44 55
57 57 57 51 41 42 40 41 41 43 51 63 64 64 62 59 55 59 59 59 60 58 57 56 56 56 57 55 55 56 55 55 54 54 56 60 61 59 58 58 60 61 59 53 54 58 60 60 60 61 59 55 51 61 63 63 64 63 62 62 63 54 52 50 48 42 43 44 42 42 42 42 44 57
57 57 56 54 42 40 40 41 41 44 47 52 63 64 63 60 56 54 57 54 50 58 56 56 57 57 58 57 57 56 56 56 57 56 56 58 60 61 61 61 59 60 58 52 46 59 57 59 58 59 58 59 58 57 59 60 62 63 61 61 61 62 62 62 58 62 46 41 40 41 41 42 42 50
54 53 53 51 43 39 39 39 40 41 42 44 58 53 44 42 44 57 56 57 57 57 57 57 56 57 58 59 58 57 57 57 57 58 58 57 57 57 58 58 58 58 57 55 45 57 56 56 56 54 55 55 56 56 55 57 60 61 62 62 61 61 60 60 61 60 60 60 60 51 49 41 43 42
46 47 46 44 40 39 39 39 40 41 42 46 48 40 41 42 43 50 58 56 56 55 55 54 53 53 55 55 56 56 56 55 56 57 57 57 56 55 55 55 55 55 54 55 54 53 54 54 54 53 54 56 54 56 56 56 57 60 60 61 60 61 61 60 58 58 58 58 58 41 42 40 40 41
45 44 43 41 38 38 38 38 39 39 41 43 39 40 40 42 45 53 53 52 51 48 49 49 49 50 51 53 53 52 53 53 54 54 54 54 53 54 54 54 53 54 53 53 53 52 52 55 56 56 55 55 54 53 53 58 57 58 56 58 59 60 60 59 58 56 57 58 59 56 55 53 52 49
41 39 38 38 39 39 39 39 40 40 39 38 39 39 41 45 51 52 53 52 51 49 48 47 46 47 48 48 48 49 51 51 51 51 51 50 50 52 53 53 52 51 50 51 53 53 53 53 54 56 56 56 55 56 55 54 55 56 54 54 55 58 58 58 57 58 57 58 57 55 54 52 51 49
38 38 39 39 39 40 40 42 42 41 40 39 39 40 43 49 50 53 54 53 50 48 46 46 46 48 48 46 46 47 48 47 45 48 51 52 50 52 52 52 51 51 51 50 52 54 55 55 54 55 56 56 55 55 55 53 54 56 54 54 54 57 56 57 57 58 56 54 53 52 51 51 49 47
41 40 40 39 39 39 39 39 39 40 40 41 41 42 42 42 44 46 47 47 46 47 47 46 47 48 48 47 47 46 46 46 46 47 48 50 49 50 52 51 50 49 50 52 53 53 55 55 55 54 54 55 56 55 54 55 55 54 55 55 54 51 54 57 57 56 54 52 51 50 50 49 47 45
43 42 41 41 42 41 41 40 40 40 39 39 39 41 41 41 40 41 41 41 43 44 46 45 44 44 45 45 46 45 44 43 43 45 45 46 47 48 51 49 47 50 51 52 53 53 50 55 54 55 54 53 52 53 56 56 54 54 54 54 54 55 55 54 54 54 52 50 50 49 49 48 47 47
42 41 41 40 39 39 38 38 38 38 38 37 39 41 41 41 41 42 42 41 41 43 44 43 43 43 44 43 44 42 41 40 41 44 45 46 47 48 49 47 49 49 50 50 51 53 54 54 53 53 54 54 53 52 53 52 54 54 52 52 53 52 53 54 52 50 50 50 48 49 48 49 48 48
39 38 38 38 38 38 38 37 37 37 37 37 37 37 37 39 40 39 39 40 40 41 41 43 41 40 41 41 41 41 41 42 42 42 41 45 47 46 46 45 46 47 48 49 49 49 51 53 55 53 53 52 53 52 53 52 51 52 52 51 50 50 52 53 53 52 51 49 48 48 48 48 49 49
39 39 38 37 37 37 37 37 37 37 37 37 36 37 37 38 37 37 38 38 38 38 38 39 39 39 39 39 40 39 40 41 43 45 45 46 46 46 46 45 45 45 47 47 48 49 50 51 53 54 54 53 51 50 47 50 51 50 52 51 50 50 50 52 52 53 52 51 51 47 49 50 50 50
38 38 38 37 37 37 37 37 37 38 38 38 37 37 37 37 37 37 37 39 41 40 40 40 39 39 39 39 40 41 40 42 43 44 44 44 44 43 45 45 45 46 48 47 47 50 50 50 50 49 47 48 48 48 47 44 45 51 48 46 50 49 49 51 52 52 52 51 51 50 46 44 48 49
37 37 37 36 37 37 36 36 37 37 38 38 38 38 37 36 36 37 37 37 40 39 40 39 40 40 40 41 41 40 42 42 43 42 42 45 45 45 43 43 43 46 48 48 50 50 50 49 50 49 48 46 46 44 47 46 41 43 51 48 47 50 49 50 51 50 50 50 50 49 46 44 44 49
38 37 37 37 37 37 36 37 37 37 38 38 38 37 38 38 38 39 41 41 40 40 40 41 41 41 41 43 42 42 42 43 44 43 44 43 43 44 44 44 45 47 49 50 50 50 51 50 49 48 48 45 45 45 44 47 48 46 43 49 45 47 51 48 48 47 48 51 49 50 50 47 43 48
39 38 38 37 38 38 38 38 38 38 39 39 38 39 38 40 41 41 40 41 42 41 42 41 41 41 41 41 43 44 44 44 44 44 44 43 43 44 44 45 45 48 47 47 50 50 51 50 49 49 47 44 42 43 44 43 44 49 44 38 47 46 49 45 47 45 48 47 50 51 47 47 47 38
39 39 40 40 40 40 40 40 40 40 40 40 40 41 40 39 40 40 41 40 40 40 40 40 40 41 41 43 44 44 43 41 43 42 44 44 43 43 44 45 46 43 47 45 45 50 50 49 48 48 47 47 46 46 47 46 47 49 49 41 36 43 45 46 47 47 46 48 48 47 46 48 48 49
40 39 39 40 41 40 40 41 41 41 40 41 41 39 42 42 42 41 41 42 41 42 42 42 41 41 43 43 43 46 44 44 45 44 43 44 43 43 41 41 47 46 46 44 46 47 48 49 45 34 40 45 43 42 44 43 42 44 45 47 39 37 36 39 48 49 45 47 49 47 46 46 47 50
41 41 41 42 42 42 42 41 42 42 42 42 42 41 41 40 39 37 39 37 39 41 44 44 43 44 43 44 44 44 45 45 45 44 44 46 47 45 43 45 46 46 45 45 43 46 50 51 49 48 49 45 47 44 43 43 42 43 42 45 48 40 38 36 35 38 48 46 49 47 47 49 50 48
42 42 42 42 42 43 43 42 42 42 42 42 42 41 41 41 41 43 44 43 44 44 44 44 45 45 45 45 45 45 46 45 44 44 42 44 45 46 46 46 44 44 44 45 48 46 47 48 51 48 50 49 46 46 43 42 42 43 44 47 47 50 48 38 38 36 37 35 37 41 45 46 46 43
43 43 43 44 44 44 44 44 44 44 44 41 42 43 44 44 42 43 44 44 44 44 44 45 45 45 44 45 45 46 47 46 46 45 45 44 44 45 45 45 44 45 47 48 48 49 49 49 49 48 48 46 46 46 43 42 44 43 45 45 46 46 47 49 47 38 37 37 36 36 34 34 36 37
44 44 44 44 45 45 45 46 45 45 44 44 44 43 44 44 43 44 43 43 43 43 44 45 46 46 46 46 47 46 46 43 45 46 46 46 47 46 45 46 46 46 46 46 48 47 48 48 50 50 49 47 46 45 44 43 43 43 44 43 43 46 48 48 47 47 48 48 39 33 35 34 36 36
MSLP
1019.67 1019.75 1019.95 1020.03 1020.03 1020.15 1020.23 1020.39 1020.47 1020.59 1020.63 1020.63 1020.79 1020.95 1021.39 1021.67 1022.43 1023.51 1023.67 1023.39 1023.27 1023.03 1022.91 1023.35 1023.39 1023.43 1023.63 1023.99 1024.19 1024.51 1024.55 1024.67 1025.11 1025.07 1025.03 1025.07 1025.15 1025.55 1025.79 1025.87 1025.99 1026.15 1026.35 1026.43 1026.51 1026.59 1026.67 1026.83 1026.91 1026.95 1027.07 1027.19 1027.27 1027.31 1027.35 1027.43 1027.55 1027.75 1027.83 1027.87 1027.91 1027.95 1027.99 1028.07 1028.15 1028.15 1028.11 1028.03 1028.11 1028.15 1028.19 1028.19 1028.19 1028.15
1019.35 1019.43 1019.67 1019.91 1020.03 1019.91 1020.15 1020.31 1020.39 1020.51 1020.63 1020.71 1020.75 1020.87 1020.83 1021.03 1021.75 1022.27 1022.87 1022.75 1022.43 1022.55 1022.71 1022.67 1022.91 1023.27 1023.47 1023.71 1024.07 1024.23 1024.35 1024.59 1024.91 1024.75 1024.83 1024.95 1024.99 1025.39 1025.71 1025.83 1025.95 1026.07 1026.23 1026.35 1026.43 1026.51 1026.63 1026.75 1026.91 1026.95 1027.07 1027.19 1027.27 1027.31 1027.31 1027.39 1027.47 1027.59 1027.71 1027.75 1027.75 1027.83 1027.87 1027.95 1028.03 1028.07 1028.11 1028.11 1028.15 1028.15 1028.15 1028.15 1028.11 1028.03
1019.15 1019.35 1019.51 1019.71 1019.87 1019.83 1020.07 1020.15 1020.31 1020.43 1020.59 1020.63 1020.67 1020.75 1020.79 1020.95 1021.19 1021.63 1021.99 1022.43 1022.03 1021.83 1022.67 1022.55 1022.35 1022.83 1023.15 1023.43 1023.75 1024.07 1024.11 1024.43 1024.79 1024.75 1024.79 1024.79 1025.03 1025.43 1025.59 1025.79 1025.91 1025.99 1026.15 1026.27 1026.35 1026.43 1026.55 1026.71 1026.87 1026.95 1027.07 1027.15 1027.23 1027.27 1027.23 1027.27 1027.35 1027.43 1027.47 1027.51 1027.55 1027.59 1027.63 1027.67 1027.75 1027.83 1027.87 1027.95 1027.99 1027.99 1027.99 1027.99 1027.95 1027.87
1019.15 1019.47 1020.03 1020.11 1019.79 1019.75 1019.91 1020.03 1020.15 1020.31 1020.39 1020.47 1020.47 1020.55 1020.75 1020.95 1021.11 1021.31 1021.71 1022.03 1022.15 1022.03 1021.99 1022.15 1022.43 1022.59 1023.03 1023.27 1023.63 1023.87 1024.03 1024.31 1024.75 1024.59 1024.71 1024.79 1025.23 1025.35 1025.23 1025.63 1025.79 1025.95 1026.03 1026.19 1026.27 1026.35 1026.47 1026.63 1026.79 1026.91 1026.99 1027.07 1027.11 1027.11 1027.11 1027.11 1027.15 1027.23 1027.35 1027.39 1027.43 1027.43 1027.47 1027.51 1027.55 1027.59 1027.63 1027.67 1027.75 1027.79 1027.79 1027.75 1027.71 1027.67
1019.07 1019.27 1019.51 1019.67 1019.59 1019.47 1019.71 1019.71 1019.83 1020.03 1020.19 1020.35 1020.43 1020.35 1020.55 1020.87 1021.07 1021.31 1021.59 1021.91 1021.91 1022.23 1022.27 1022.27 1022.31 1022.55 1022.83 1023.31 1023.31 1023.55 1023.83 1024.11 1024.43 1024.63 1024.55 1024.71 1024.95 1024.95 1024.91 1024.99 1025.47 1025.75 1025.91 1026.07 1026.23 1026.35 1026.47 1026.59 1026.75 1026.83 1026.91 1026.99 1027.03 1027.03 1027.03 1027.07 1027.11 1027.19 1027.31 1027.39 1027.43 1027.43 1027.39 1027.39 1027.39 1027.43 1027.39 1027.47 1027.47 1027.51 1027.59 1027.55 1027.51 1027.47
1018.79 1018.91 1019.11 1019.03 1019.15 1019.19 1019.43 1019.47 1019.55 1019.75 1019.99 1020.11 1020.23 1020.31 1020.43 1020.59 1020.87 1020.95 1021.23 1021.47 1021.63 1022.07 1022.47 1022.51 1022.35 1022.71 1022.79 1022.95 1023.03 1023.31 1023.59 1023.79 1023.99 1024.27 1024.43 1024.55 1024.63 1024.67 1024.71 1024.71 1024.83 1025.39 1025.71 1025.91 1026.11 1026.27 1026.39 1026.51 1026.63 1026.75 1026.87 1026.91 1026.99 1027.03 1027.07 1027.11 1027.19 1027.19 1027.27 1027.31 1027.35 1027.31 1027.23 1027.15 1027.15 1027.15 1027.19 1027.19 1027.23 1027.23 1027.27 1027.31 1027.31 1027.27
1018.43 1018.63 1018.63 1018.63 1018.79 1019.07 1019.27 1019.39 1019.39 1019.47 1019.59 1019.63 1019.79 1019.95 1020.11 1020.31 1020.55 1020.67 1020.79 1021.11 1021.55 1021.75 1022.07 1022.15 1022.35 1022.47 1022.75 1022.79 1022.83 1023.07 1023.23 1023.43 1023.63 1023.87 1023.99 1024.15 1024.31 1024.43 1024.55 1024.59 1024.51 1024.99 1025.39 1025.67 1025.83 1025.99 1026.11 1026.27 1026.43 1026.59 1026.71 1026.79 1026.83 1026.87 1026.91 1026.95 1026.95 1026.99 1026.99 1027.03 1027.03 1026.99 1026.91 1026.87 1026.79 1026.79 1026.83 1026.83 1026.87 1026.91 1026.95 1026.99 1027.03 1026.99
1017.75 1018.03 1018.27 1018.31 1018.47 1018.87 1019.07 1019.31 1019.35 1019.27 1019.31 1019.47 1019.47 1019.71 1019.87 1020.15 1020.43 1020.59 1020.83 1020.87 1021.19 1021.47 1021.79 1022.11 1021.83 1022.07 1022.55 1022.75 1022.51 1022.75 1022.99 1023.35 1023.59 1023.63 1023.63 1023.79 1023.95 1024.11 1024.31 1024.39 1024.39 1024.59 1025.07 1025.31 1025.51 1025.63 1025.83 1025.99 1026.15 1026.31 1026.43 1026.51 1026.55 1026.55 1026.59 1026.59 1026.63 1026.63 1026.63 1026.67 1026.67 1026.67 1026.63 1026.55 1026.51 1026.47 1026.47 1026.47 1026.51 1026.55 1026.63 1026.63 1026.63 1026.63
1017.19 1017.47 1017.67 1017.75 1018.11 1018.51 1018.71 1018.99 1018.99 1019.03 1019.19 1019.19 1019.31 1019.51 1019.67 1019.91 1020.11 1020.47 1020.75 1020.79 1020.91 1021.59 1021.71 1021.83 1021.83 1021.87 1022.11 1022.15 1022.35 1022.51 1022.83 1023.11 1023.31 1023.43 1023.59 1023.59 1023.67 1023.87 1023.91 1023.99 1024.11 1024.39 1024.79 1025.03 1025.19 1025.35 1025.51 1025.67 1025.79 1025.91 1025.99 1026.07 1026.15 1026.19 1026.19 1026.23 1026.27 1026.23 1026.23 1026.23 1026.23 1026.23 1026.23 1026.23 1026.23 1026.19 1026.15 1026.15 1026.15 1026.15 1026.11 1026.15 1026.19 1026.19
1016.91 1017.07 1017.19 1017.39 1017.75 1018.07 1018.35 1018.51 1018.67 1018.75 1018.91 1019.03 1019.19 1019.31 1019.39 1019.59 1019.95 1020.39 1020.63 1020.79 1020.87 1021.15 1021.19 1021.31 1021.87 1022.03 1022.07 1022.27 1022.35 1022.31 1022.55 1022.71 1023.03 1023.23 1023.35 1023.43 1023.51 1023.67 1023.83 1023.79 1023.83 1023.91 1024.11 1024.39 1024.63 1024.99 1025.19 1025.27 1025.43 1025.51 1025.55 1025.63 1025.71 1025.71 1025.75 1025.79 1025.83 1025.83 1025.75 1025.75 1025.79 1025.83 1025.87 1025.91 1025.87 1025.83 1025.83 1025.79 1025.71 1025.71 1025.67 1025.67 1025.75 1025.79
1016.59 1016.75 1016.91 1017.15 1017.51 1017.75 1017.91 1018.07 1018.27 1018.43 1018.67 1018.87 1019.03 1019.15 1019.35 1019.47 1019.75 1020.23 1020.39 1020.51 1020.79 1020.91 1020.99 1020.99 1021.11 1021.51 1021.75 1021.87 1022.15 1022.15 1022.31 1022.51 1022.59 1022.87 1023.11 1023.27 1023.07 1023.31 1023.43 1023.51 1023.47 1023.63 1023.83 1023.95 1024.19 1024.23 1024.31 1024.47 1024.67 1024.83 1025.11 1025.27 1025.31 1025.19 1025.19 1025.31 1025.39 1025.39 1025.39 1025.43 1025.43 1025.47 1025.47 1025.43 1025.43 1025.43 1025.43 1025.43 1025.43 1025.47 1025.51 1025.51 1025.47 1025.47
1016.47 1016.71 1016.91 1017.31 1017.59 1017.39 1017.67 1017.91 1018.19 1018.63 1018.95 1019.03 1019.43 1019.43 1019.23 1019.27 1019.59 1019.91 1020.11 1020.35 1020.47 1020.67 1020.75 1021.19 1021.95 1021.51 1021.71 1022.07 1021.99 1021.99 1022.31 1022.51 1022.59 1022.35 1022.43 1022.63 1022.67 1022.87 1022.99 1023.11 1023.23 1023.27 1023.47 1023.63 1023.67 1023.95 1024.27 1024.39 1024.51 1024.63 1024.75 1024.87 1024.79 1024.71 1024.79 1024.87 1024.95 1024.95 1024.95 1024.91 1024.91 1024.91 1024.95 1024.99 1025.03 1025.07 1025.11 1025.15 1025.19 1025.27 1025.31 1025.39 1025.43 1025.35
1016.63 1016.87 1016.87 1016.87 1017.11 1017.31 1017.51 1017.87 1018.23 1018.55 1018.95 1019.59 1019.75 1019.35 1019.07 1019.11 1019.31 1019.51 1019.71 1019.99 1020.27 1020.55 1021.43 1021.71 1022.03 1021.67 1021.67 1021.67 1022.03 1022.19 1022.15 1021.99 1021.71 1021.91 1022.27 1022.31 1022.07 1022.11 1022.51 1022.67 1022.79 1022.95 1023.15 1023.23 1023.31 1023.35 1023.51 1023.67 1023.67 1023.67 1023.67 1023.55 1023.91 1024.07 1024.23 1024.15 1024.19 1024.23 1024.31 1024.35 1024.43 1024.51 1024.55 1024.59 1024.67 1024.71 1024.75 1024.83 1024.87 1024.99 1025.07 1025.19 1025.23 1025.23
1016.35 1016.51 1016.63 1016.63 1016.95 1017.19 1017.59 1018.07 1018.31 1018.55 1018.71 1018.83 1018.75 1018.75 1018.87 1018.95 1019.15 1019.39 1019.59 1019.71 1019.95 1020.47 1020.87 1020.87 1021.47 1022.11 1021.67 1021.39 1021.51 1021.51 1021.31 1021.27 1021.43 1021.79 1022.19 1022.31 1022.07 1022.31 1022.43 1022.47 1022.59 1022.71 1022.91 1023.03 1023.11 1022.99 1022.99 1023.27 1023.19 1023.15 1023.15 1023.11 1023.39 1023.35 1023.43 1023.39 1023.43 1023.55 1023.79 1023.95 1024.03 1024.11 1024.19 1024.27 1024.31 1024.39 1024.43 1024.47 1024.55 1024.63 1024.71 1024.79 1024.91 1024.95
1016.03 1016.19 1016.31 1016.43 1016.91 1017.43 1017.79 1017.91 1018.19 1018.39 1018.47 1018.59 1018.71 1018.75 1018.71 1018.63 1018.75 1019.07 1019.47 1019.51 1019.67 1019.95 1020.07 1020.19 1021.27 1021.59 1021.15 1020.87 1020.83 1020.95 1020.95 1021.19 1021.35 1021.43 1021.67 1021.87 1022.03 1022.19 1022.35 1022.39 1022.51 1022.55 1022.55 1022.83 1022.87 1022.83 1022.75 1022.95 1022.95 1022.71 1022.71 1022.83 1022.99 1023.07 1023.07 1023.31 1023.55 1023.67 1023.79 1023.83 1023.87 1023.91 1023.95 1023.95 1023.99 1024.03 1024.07 1024.11 1024.11 1024.19 1024.27 1024.39 1024.47 1024.59
1015.55 1015.83 1016.07 1016.27 1016.63 1016.99 1017.19 1017.59 1018.23 1018.47 1018.51 1018.59 1018.83 1018.99 1019.03 1019.03 1019.03 1018.95 1018.91 1019.07 1019.47 1019.59 1019.71 1019.83 1020.07 1020.35 1020.39 1020.19 1020.35 1020.55 1020.71 1020.95 1021.19 1021.27 1021.43 1021.67 1021.75 1021.87 1021.99 1021.95 1021.99 1022.27 1022.51 1022.59 1022.75 1022.71 1022.75 1022.87 1022.83 1022.83 1022.75 1022.71 1022.87 1023.03 1023.31 1023.51 1023.59 1023.63 1023.67 1023.71 1023.75 1023.75 1023.75 1023.75 1023.75 1023.79 1023.79 1023.83 1023.83 1023.91 1023.99 1024.11 1024.23 1024.35
1015.43 1015.71 1015.79 1016.27 1016.55 1016.63 1017.27 1017.55 1017.83 1018.27 1018.75 1019.07 1019.11 1019.27 1019.43 1019.51 1019.39 1019.27 1019.27 1019.19 1018.91 1018.83 1019.27 1019.43 1019.55 1019.63 1019.87 1020.31 1020.27 1020.27 1020.51 1020.63 1020.99 1021.19 1021.35 1021.43 1021.55 1021.51 1021.63 1021.55 1021.79 1022.35 1022.39 1022.47 1022.55 1022.55 1022.31 1022.55 1022.63 1022.67 1022.55 1022.63 1022.83 1022.95 1023.11 1023.35 1023.51 1023.59 1023.63 1023.67 1023.67 1023.67 1023.63 1023.59 1023.63 1023.59 1023.63 1023.63 1023.67 1023.71 1023.79 1023.87 1023.95 1024.11
1015.19 1015.47 1015.67 1015.99 1016.39 1016.67 1017.03 1017.15 1017.51 1017.83 1018.19 1018.63 1018.87 1018.95 1018.99 1019.19 1019.59 1019.67 1019.67 1019.51 1019.47 1019.23 1019.07 1019.27 1019.51 1019.71 1019.87 1020.19 1020.15 1020.31 1020.51 1020.71 1020.75 1020.83 1020.99 1021.15 1021.39 1021.55 1021.55 1021.59 1021.83 1022.19 1022.39 1022.39 1022.27 1022.47 1022.11 1022.39 1022.59 1022.83 1022.79 1022.71 1022.83 1022.71 1022.99 1023.35 1023.51 1023.55 1023.55 1023.55 1023.51 1023.51 1023.51 1023.47 1023.47 1023.47 1023.47 1023.47 1023.47 1023.51 1023.55 1023.63 1023.71 1023.83
1015.03 1015.23 1015.47 1015.87 1016.43 1016.47 1016.51 1016.75 1017.03 1017.39 1017.79 1018.07 1018.39 1018.67 1018.99 1019.27 1019.51 1019.71 1019.67 1019.55 1019.35 1019.35 1019.35 1019.31 1019.59 1020.03 1020.23 1020.35 1020.43 1020.47 1020.51 1020.59 1020.59 1020.63 1020.75 1020.99 1021.23 1021.47 1021.71 1021.91 1022.19 1022.31 1022.51 1022.59 1022.51 1022.47 1022.03 1022.71 1022.87 1022.51 1022.39 1022.67 1022.63 1022.55 1022.95 1023.31 1023.39 1023.47 1023.51 1023.51 1023.51 1023.47 1023.47 1023.43 1023.39 1023.35 1023.35 1023.35 1023.35 1023.35 1023.43 1023.47 1023.55 1023.63
1015.11 1015.19 1015.35 1015.55 1015.95 1016.23 1016.27 1016.75 1017.07 1017.15 1017.39 1017.79 1018.19 1018.71 1019.15 1019.55 1019.99 1020.51 1020.99 1020.67 1019.91 1019.39 1019.35 1019.55 1019.95 1020.43 1020.83 1020.71 1020.75 1020.79 1020.55 1020.59 1020.75 1020.87 1020.91 1021.07 1021.31 1021.51 1021.59 1021.75 1022.23 1022.55 1022.99 1023.11 1022.87 1022.75 1022.35 1022.67 1022.75 1022.51 1022.39 1022.43 1022.35 1022.31 1022.31 1022.99 1023.27 1023.35 1023.39 1023.43 1023.43 1023.43 1023.39 1023.35 1023.35 1023.31 1023.27 1023.23 1023.23 1023.23 1023.27 1023.35 1023.43 1023.55
1015.43 1015.51 1015.51 1015.59 1015.71 1015.83 1016.19 1016.91 1017.11 1017.27 1017.23 1017.55 1017.99 1018.51 1018.99 1019.47 1019.79 1020.51 1021.03 1021.07 1020.79 1020.63 1020.67 1020.79 1020.95 1021.15 1021.15 1021.07 1021.07 1021.07 1021.03 1020.87 1020.75 1020.63 1020.91 1021.31 1021.27 1021.31 1021.35 1022.03 1022.35 1022.83 1023.35 1023.39 1023.23 1022.91 1022.55 1022.39 1022.55 1022.35 1022.19 1022.31 1022.43 1022.31 1022.47 1022.63 1023.03 1023.19 1023.31 1023.39 1023.43 1023.39 1023.35 1023.27 1023.23 1023.15 1023.07 1023.07 1023.07 1023.15 1023.23 1023.31 1023.43 1023.63
1015.59 1015.91 1016.23 1016.11 1016.11 1016.07 1016.23 1017.03 1017.15 1017.23 1017.11 1017.35 1017.79 1018.27 1018.83 1019.39 1019.99 1020.67 1020.87 1020.99 1021.31 1021.23 1021.15 1021.15 1021.19 1021.27 1021.31 1021.23 1021.31 1021.43 1021.51 1021.43 1021.19 1020.75 1021.19 1021.99 1021.95 1022.11 1022.19 1022.27 1022.43 1022.75 1023.03 1023.55 1023.55 1023.07 1022.43 1022.59 1022.51 1022.59 1022.23 1022.23 1022.23 1022.43 1022.51 1022.67 1022.71 1022.91 1022.91 1023.23 1023.35 1023.31 1023.31 1023.27 1023.19 1023.15 1023.11 1023.11 1023.11 1023.15 1023.27 1023.35 1023.59 1023.71
1015.75 1016.07 1016.39 1016.55 1016.15 1016.19 1016.79 1017.19 1017.27 1017.19 1016.91 1017.15 1017.55 1017.91 1018.35 1019.11 1019.79 1020.35 1020.47 1020.51 1020.51 1020.55 1020.63 1020.91 1020.99 1021.27 1021.47 1021.51 1021.63 1021.91 1021.87 1021.87 1021.79 1021.79 1022.07 1022.19 1021.95 1021.67 1021.87 1022.19 1022.31 1022.31 1022.91 1023.71 1023.71 1022.99 1022.47 1022.75 1022.51 1022.75 1022.63 1022.47 1022.23 1022.43 1022.55 1022.47 1022.47 1022.67 1022.83 1022.75 1022.95 1023.27 1023.31 1023.27 1023.23 1023.23 1023.19 1023.15 1023.15 1023.19 1023.27 1023.39 1023.51 1023.23
1015.91 1016.03 1016.31 1016.71 1016.79 1016.75 1017.19 1017.59 1017.79 1017.63 1017.15 1017.07 1017.43 1017.67 1018.03 1018.75 1019.75 1019.99 1020.07 1020.23 1020.23 1020.59 1020.87 1021.23 1021.39 1021.55 1021.75 1021.91 1021.99 1022.03 1022.15 1022.27 1022.35 1022.39 1022.31 1022.15 1021.95 1022.15 1022.35 1022.47 1022.27 1021.95 1022.51 1024.03 1024.07 1023.31 1022.95 1023.03 1022.87 1022.91 1022.99 1023.15 1022.87 1022.31 1022.55 1022.63 1022.67 1022.87 1023.03 1022.95 1022.67 1022.83 1022.91 1022.95 1022.91 1023.07 1023.15 1023.15 1023.23 1023.27 1023.35 1023.47 1023.47 1022.95
1015.67 1015.95 1016.35 1016.91 1017.51 1017.39 1017.67 1017.87 1017.99 1017.87 1017.79 1017.59 1017.55 1017.55 1017.91 1018.47 1019.27 1019.75 1020.19 1020.75 1020.63 1020.75 1021.15 1021.39 1021.51 1021.59 1021.75 1021.95 1022.07 1022.27 1022.39 1022.51 1022.59 1022.67 1022.75 1022.75 1022.63 1022.47 1022.35 1022.39 1022.59 1022.55 1023.11 1024.35 1024.43 1023.63 1023.19 1023.15 1023.11 1023.11 1022.91 1022.87 1022.75 1022.87 1022.83 1023.07 1022.71 1022.75 1023.03 1022.95 1022.79 1022.67 1022.67 1022.59 1022.55 1022.39 1022.75 1022.95 1023.07 1023.23 1023.39 1023.51 1023.59 1023.31
1016.27 1016.55 1016.95 1017.47 1017.99 1017.87 1017.99 1018.19 1018.19 1018.27 1018.27 1018.23 1018.23 1018.79 1019.07 1019.55 1019.71 1019.75 1020.07 1020.43 1020.71 1020.83 1020.95 1021.27 1021.55 1021.63 1021.67 1021.87 1022.15 1022.39 1022.59 1022.79 1022.95 1022.99 1023.07 1023.27 1023.31 1023.35 1023.31 1023.19 1022.99 1022.79 1023.15 1024.27 1024.51 1023.95 1023.67 1023.23 1023.43 1023.63 1023.39 1023.39 1022.91 1023.11 1023.19 1022.95 1022.67 1022.71 1022.83 1022.79 1022.83 1022.79 1022.83 1022.67 1022.47 1022.35 1022.35 1022.43 1022.39 1022.79 1023.11 1023.51 1023.63 1023.71
1017.55 1017.75 1018.11 1018.51 1018.55 1018.39 1018.51 1018.63 1018.79 1018.83 1018.83 1018.91 1019.51 1019.79 1019.75 1019.91 1019.99 1019.91 1020.03 1020.43 1020.79 1021.07 1021.31 1021.59 1021.91 1022.11 1022.15 1022.31 1022.51 1022.71 1022.91 1023.19 1023.31 1023.27 1023.39 1023.51 1023.59 1023.75 1023.79 1023.91 1023.95 1023.95 1024.27 1024.43 1024.47 1024.35 1024.15 1023.87 1024.07 1023.95 1023.59 1023.43 1023.27 1022.79 1022.71 1022.47 1022.47 1022.79 1022.71 1022.75 1022.79 1022.63 1022.67 1022.67 1022.59 1022.47 1022.51 1022.51 1022.51 1023.19 1023.39 1023.59 1023.79 1023.87
1018.11 1018.43 1018.95 1019.23 1019.07 1019.07 1019.19 1019.39 1019.55 1019.71 1019.75 1020.11 1020.39 1020.31 1020.35 1020.27 1020.19 1020.23 1020.63 1020.95 1021.39 1021.75 1021.99 1022.15 1022.43 1022.67 1022.83 1022.79 1022.91 1023.23 1023.43 1023.59 1023.71 1023.75 1023.87 1023.95 1024.03 1023.95 1023.95 1024.15 1024.31 1024.43 1024.51 1024.55 1024.59 1024.55 1024.43 1023.99 1023.75 1023.95 1023.91 1023.59 1023.27 1023.03 1022.95 1022.59 1022.63 1022.79 1022.99 1022.95 1022.67 1022.59 1022.59 1022.63 1022.63 1022.63 1022.59 1022.51 1022.23 1022.59 1022.79 1022.99 1023.35 1023.71
1019.39 1019.35 1019.27 1019.19 1019.35 1019.63 1019.71 1019.95 1020.07 1020.35 1020.71 1020.95 1021.11 1021.15 1020.99 1020.79 1020.71 1020.71 1020.87 1021.23 1021.43 1021.83 1022.35 1022.83 1023.23 1023.51 1023.59 1023.75 1023.99 1024.03 1023.99 1024.11 1024.19 1024.15 1024.23 1024.35 1024.43 1024.35 1024.27 1024.31 1024.43 1024.63 1024.71 1024.63 1024.51 1024.51 1024.51 1024.39 1024.11 1023.99 1023.83 1023.63 1023.27 1023.03 1023.15 1022.99 1023.03 1022.91 1023.43 1023.43 1022.87 1022.75 1022.83 1022.83 1022.75 1022.55 1022.59 1022.47 1022.47 1022.71 1022.71 1022.91 1023.15 1023.47
1019.83 1019.67 1019.47 1019.47 1019.55 1019.79 1020.19 1020.51 1020.87 1021.15 1021.39 1021.51 1021.63 1021.71 1021.63 1021.51 1021.43 1021.19 1021.11 1021.35 1021.71 1022.35 1022.95 1023.31 1023.59 1023.83 1024.07 1024.35 1024.51 1024.51 1024.43 1024.47 1024.67 1024.51 1024.19 1024.19 1024.43 1024.31 1024.07 1024.15 1024.43 1024.63 1024.71 1024.75 1024.63 1024.51 1024.35 1024.31 1024.27 1024.07 1023.59 1023.59 1023.67 1023.47 1023.43 1023.47 1023.03 1023.11 1023.39 1023.39 1023.35 1022.91 1022.55 1022.83 1022.71 1022.59 1022.55 1022.75 1022.95 1023.15 1023.19 1023.27 1023.35 1023.59
1020.51 1020.39 1020.23 1020.23 1020.27 1020.47 1020.83 1021.35 1021.83 1021.83 1021.63 1021.83 1022.27 1022.47 1022.67 1022.67 1022.63 1022.43 1022.19 1022.31 1022.67 1023.03 1023.27 1023.59 1023.83 1024.11 1024.43 1024.63 1024.63 1024.67 1024.71 1024.83 1024.95 1024.91 1024.71 1024.39 1024.47 1024.27 1024.03 1023.91 1024.19 1024.47 1024.67 1024.63 1024.59 1024.59 1024.47 1024.39 1024.35 1024.27 1023.99 1023.67 1023.47 1023.75 1023.87 1023.59 1023.19 1023.27 1023.23 1023.31 1023.23 1023.03 1022.91 1022.83 1022.67 1022.75 1023.07 1023.23 1023.27 1023.39 1023.47 1023.55 1023.75 1023.95
1021.31 1021.15 1020.83 1020.63 1020.67 1020.79 1021.23 1021.87 1022.43 1022.55 1022.51 1022.79 1023.07 1023.35 1023.51 1023.67 1023.75 1023.71 1023.51 1023.43 1023.55 1023.67 1023.71 1023.99 1024.39 1024.63 1024.67 1024.67 1024.75 1024.91 1025.15 1025.39 1025.51 1025.35 1025.07 1024.71 1024.55 1024.35 1023.99 1024.11 1024.35 1024.19 1024.23 1024.35 1024.39 1024.47 1024.55 1024.59 1024.55 1024.35 1024.35 1024.31 1024.19 1024.07 1023.59 1023.23 1023.39 1023.47 1023.35 1023.31 1023.15 1022.95 1023.07 1023.11 1022.91 1022.95 1023.43 1023.47 1023.27 1023.27 1023.43 1023.55 1023.67 1023.87
1021.79 1021.51 1021.35 1021.39 1021.43 1021.67 1022.19 1022.75 1023.11 1023.31 1023.51 1023.87 1023.95 1024.07 1024.31 1024.47 1024.47 1024.27 1024.03 1024.03 1024.15 1024.11 1024.03 1024.31 1024.55 1024.75 1024.75 1024.95 1025.11 1025.27 1025.51 1025.71 1025.75 1025.47 1025.19 1025.03 1024.71 1024.59 1024.39 1024.43 1024.43 1024.31 1024.27 1024.39 1024.59 1024.71 1024.71 1024.63 1024.75 1024.71 1024.63 1024.67 1024.75 1024.55 1023.99 1023.67 1023.43 1023.55 1023.63 1023.55 1023.43 1023.27 1023.27 1023.35 1023.47 1023.67 1023.71 1023.43 1023.39 1023.31 1023.35 1023.43 1023.59 1023.71
1022.27 1022.47 1022.47 1022.55 1022.63 1022.75 1022.95 1023.35 1023.75 1024.03 1024.23 1024.47 1024.71 1024.91 1025.03 1024.95 1024.91 1024.87 1024.79 1024.75 1024.75 1024.67 1024.67 1024.79 1024.91 1025.03 1025.07 1025.23 1025.31 1025.39 1025.47 1025.55 1025.63 1025.71 1025.43 1025.15 1024.87 1024.67 1024.71 1024.79 1024.95 1025.03 1024.91 1024.95 1025.03 1025.03 1024.79 1024.59 1024.43 1024.71 1024.91 1025.03 1024.99 1024.91 1024.59 1024.15 1024.03 1023.87 1023.75 1023.91 1023.83 1023.63 1023.55 1023.35 1023.39 1023.55 1023.55 1023.63 1023.47 1023.31 1023.15 1023.23 1023.39 1023.59
1022.83 1023.07 1023.23 1023.35 1023.31 1023.47 1023.55 1023.79 1024.11 1024.35 1024.55 1024.83 1025.07 1025.31 1025.35 1025.39 1025.51 1025.51 1025.47 1025.51 1025.43 1025.35 1025.39 1025.43 1025.43 1025.43 1025.39 1025.51 1025.59 1025.63 1025.63 1025.55 1025.43 1025.39 1025.27 1025.15 1025.03 1024.95 1024.95 1025.07 1025.31 1025.27 1025.11 1025.15 1025.11 1025.11 1024.99 1024.75 1024.35 1023.91 1023.91 1024.19 1024.59 1025.15 1025.35 1024.99 1024.35 1024.07 1023.91 1023.87 1023.95 1023.87 1023.67 1023.63 1023.51 1023.35 1023.35 1023.31 1023.19 1023.19 1022.95 1022.87 1023.07 1023.35
1023.47 1023.51 1023.55 1023.63 1023.79 1023.87 1024.07 1024.35 1024.51 1024.67 1024.83 1025.03 1025.27 1025.39 1025.47 1025.71 1025.79 1025.87 1025.95 1025.79 1025.55 1025.51 1025.55 1025.67 1025.75 1025.71 1025.63 1025.59 1025.55 1025.51 1025.47 1025.43 1025.39 1025.39 1025.43 1025.43 1025.39 1025.35 1025.39 1025.51 1025.39 1025.19 1025.07 1025.11 1025.23 1025.07 1024.99 1024.91 1024.59 1024.39 1024.15 1023.95 1023.51 1023.27 1024.27 1025.27 1025.11 1024.71 1024.47 1024.31 1024.07 1024.11 1024.07 1023.87 1023.63 1023.47 1023.39 1023.35 1023.31 1023.27 1023.31 1023.39 1023.39 1023.55
1023.79 1023.87 1023.95 1024.11 1024.27 1024.35 1024.55 1024.75 1024.87 1024.99 1025.07 1025.19 1025.35 1025.43 1025.67 1025.99 1026.19 1026.31 1026.31 1026.11 1025.99 1026.03 1025.99 1025.91 1025.91 1025.79 1025.67 1025.51 1025.51 1025.55 1025.51 1025.47 1025.59 1025.63 1025.63 1025.55 1025.55 1025.43 1025.27 1025.35 1025.43 1025.27 1024.99 1025.15 1025.11 1024.91 1025.03 1024.99 1024.79 1024.59 1024.31 1024.11 1023.67 1023.83 1023.75 1024.63 1025.27 1025.19 1024.75 1024.63 1024.35 1024.15 1024.23 1023.87 1023.55 1023.51 1023.55 1023.59 1023.55 1023.55 1023.67 1023.59 1023.75 1023.67
1023.87 1024.11 1024.23 1024.39 1024.63 1024.83 1024.99 1025.11 1025.19 1025.27 1025.35 1025.47 1025.59 1025.71 1025.83 1026.03 1026.23 1026.31 1026.23 1026.11 1026.15 1026.03 1025.95 1025.83 1025.79 1025.71 1025.59 1025.47 1025.47 1025.67 1025.71 1025.71 1025.63 1025.67 1025.71 1025.59 1025.47 1025.51 1025.51 1025.39 1025.27 1025.03 1024.75 1024.83 1024.91 1025.03 1024.95 1024.91 1024.95 1024.95 1024.75 1024.51 1023.99 1023.95 1024.35 1024.23 1024.35 1024.91 1025.23 1025.03 1024.79 1024.43 1023.99 1023.83 1023.63 1023.79 1023.75 1023.55 1023.67 1023.79 1023.63 1023.59 1023.95 1023.99
1024.07 1024.27 1024.43 1024.63 1024.83 1024.91 1025.11 1025.23 1025.27 1025.35 1025.47 1025.55 1025.67 1025.75 1025.87 1025.99 1026.07 1026.11 1026.11 1026.11 1026.03 1025.99 1025.95 1025.91 1025.91 1025.91 1025.91 1025.83 1025.71 1025.63 1025.63 1025.67 1025.67 1025.71 1025.75 1025.79 1025.83 1025.79 1025.63 1025.39 1025.23 1025.07 1024.95 1024.95 1024.87 1024.83 1024.79 1024.83 1024.91 1024.91 1024.95 1025.15 1025.15 1025.27 1025.23 1025.23 1024.91 1024.75 1025.11 1025.47 1025.15 1024.63 1024.07 1024.07 1023.91 1023.83 1023.91 1023.83 1023.71 1023.63 1023.79 1024.07 1024.27 1024.55
1024.43 1024.47 1024.59 1024.71 1024.87 1024.95 1025.07 1025.15 1025.23 1025.35 1025.55 1025.67 1025.75 1025.83 1025.95 1026.03 1026.03 1026.03 1026.07 1026.07 1026.11 1026.15 1026.11 1026.27 1026.31 1026.19 1026.15 1026.07 1025.91 1025.95 1026.03 1026.07 1025.95 1025.95 1025.99 1025.95 1025.99 1025.91 1025.67 1025.51 1025.43 1025.35 1024.99 1025.31 1025.11 1024.71 1024.71 1024.87 1025.15 1025.23 1025.27 1025.31 1025.51 1025.63 1025.59 1025.51 1025.27 1024.95 1024.79 1025.35 1025.47 1025.27 1024.75 1024.31 1024.11 1024.03 1023.99 1024.15 1024.19 1023.79 1023.67 1023.55 1023.43 1023.79
1024.71 1024.83 1024.95 1024.95 1024.99 1025.07 1025.15 1025.23 1025.39 1025.59 1025.75 1025.91 1026.03 1026.11 1026.07 1026.07 1026.07 1026.15 1026.15 1026.19 1026.15 1026.15 1026.27 1026.35 1026.43 1026.35 1026.31 1026.31 1026.11 1025.83 1025.91 1025.99 1026.07 1026.11 1026.07 1026.03 1026.11 1025.99 1026.27 1025.79 1025.27 1025.39 1025.19 1025.15 1025.19 1024.99 1025.03 1025.15 1025.63 1026.11 1026.07 1025.71 1025.71 1025.83 1025.71 1025.27 1024.99 1024.99 1024.95 1024.95 1025.31 1025.39 1025.35 1025.15 1024.71 1024.31 1024.31 1024.43 1024.15 1023.95 1023.79 1023.75 1023.51 1023.03
1024.83 1024.95 1025.07 1025.03 1025.07 1025.19 1025.27 1025.47 1025.59 1025.75 1025.87 1025.99 1026.11 1026.23 1026.31 1026.39 1026.63 1026.71 1026.63 1026.63 1026.47 1026.31 1026.19 1026.23 1026.35 1026.31 1026.47 1026.47 1026.35 1026.23 1026.15 1026.11 1026.07 1026.19 1026.11 1025.79 1025.59 1025.75 1025.83 1025.51 1025.51 1025.51 1025.31 1025.19 1025.27 1025.19 1025.19 1025.19 1025.35 1025.43 1025.51 1025.39 1025.11 1025.03 1024.79 1024.91 1025.11 1025.15 1025.51 1025.07 1024.91 1025.19 1025.23 1025.19 1025.19 1025.03 1024.67 1024.35 1023.95 1023.67 1023.51 1023.19 1023.07 1022.91
1025.07 1025.07 1025.15 1025.23 1025.23 1025.31 1025.47 1025.67 1025.79 1025.91 1026.03 1026.11 1026.23 1026.31 1026.35 1026.35 1026.35 1026.19 1026.07 1026.19 1026.19 1026.15 1026.27 1026.39 1026.39 1026.39 1026.51 1026.59 1026.63 1026.43 1026.23 1026.31 1026.27 1026.23 1026.27 1026.15 1025.95 1025.63 1025.63 1025.71 1025.83 1025.71 1025.35 1025.15 1024.99 1025.03 1025.03 1025.11 1025.15 1025.19 1024.91 1024.67 1025.07 1024.95 1024.87 1025.31 1025.35 1025.27 1024.95 1024.55 1024.55 1024.43 1024.67 1025.11 1025.19 1025.19 1025.19 1025.19 1025.07 1024.91 1024.75 1024.55 1023.87 1023.75
1025.19 1025.23 1025.27 1025.27 1025.35 1025.47 1025.59 1025.71 1025.83 1025.95 1026.07 1026.23 1026.31 1026.23 1026.19 1026.23 1026.39 1026.39 1026.27 1026.23 1026.23 1026.31 1026.39 1026.39 1026.51 1026.63 1026.71 1026.75 1026.63 1026.43 1026.31 1026.31 1026.27 1026.23 1026.15 1026.15 1026.11 1025.95 1025.83 1025.79 1025.71 1025.59 1025.23 1025.11 1025.03 1024.91 1025.03 1025.03 1025.11 1025.07 1024.83 1025.07 1025.03 1024.87 1025.31 1025.11 1024.99 1025.03 1024.75 1024.79 1024.67 1024.47 1024.31 1024.39 1024.79 1025.15 1025.19 1025.19 1025.23 1025.23 1025.27 1025.23 1025.11 1024.99
1025.31 1025.35 1025.39 1025.47 1025.51 1025.59 1025.71 1025.83 1025.95 1026.07 1026.19 1026.27 1026.19 1026.23 1026.27 1026.31 1026.43 1026.51 1026.63 1026.59 1026.63 1026.75 1026.67 1026.59 1026.59 1026.67 1026.67 1026.51 1026.31 1026.39 1026.51 1026.63 1026.31 1026.15 1026.03 1025.91 1025.83 1025.83 1025.83 1025.75 1025.55 1025.47 1025.43 1025.55 1025.19 1025.11 1025.11 1025.03 1024.95 1024.87 1024.87 1025.07 1025.15 1025.27 1025.27 1025.23 1025.07 1024.87 1024.91 1024.91 1024.71 1024.39 1024.19 1024.19 1024.23 1024.19 1024.27 1024.47 1025.11 1025.31 1025.27 1025.15 1025.03 1024.99
Wind_Speed
11 9 11 9 8 8 7 7 7 7 7 7 7 8 8 8 7 8 8 8 8 8 9 7 8 8 6 5 5 6 7 7 9 8 7 6 7 10 11 11 10 10 9 8 7 7 7 7 8 8 8 8 7 7 7 7 6 5 4 2 2 3 3 3 1 0 1 1 4 3 2 2 2 2
11 11 10 9 9 8 7 7 7 7 7 7 8 8 8 8 7 7 8 7 8 6 8 8 6 8 7 6 5 6 7 9 10 8 8 7 6 11 11 10 10 10 9 9 9 9 8 8 8 7 7 8 8 8 8 8 7 6 6 6 5 5 5 5 4 4 4 4 4 4 4 5 5 5
10 12 13 12 11 7 7 7 7 6 7 7 7 8 8 7 8 7 7 6 5 5 7 8 7 7 9 7 6 6 6 8 10 7 6 7 6 8 8 9 9 9 9 9 9 8 9 9 8 8 8 8 8 8 8 8 8 8 8 8 7 8 8 8 7 8 9 9 8 7 7 8 8 7
9 10 10 11 10 9 6 7 7 7 7 7 8 8 8 7 7 7 7 7 3 4 4 6 7 7 7 7 7 7 6 6 10 7 6 5 7 6 6 10 10 9 9 9 8 8 8 8 8 8 8 9 9 9 10 10 9 10 10 9 8 8 9 9 9 10 11 11 11 11 11 11 10 9
12 11 12 12 11 8 8 7 7 7 8 8 7 7 7 7 7 8 8 8 5 3 1 2 5 6 7 7 8 8 7 6 7 8 6 6 6 6 6 6 11 11 9 8 8 7 7 7 7 8 8 9 10 10 10 10 9 9 9 9 9 9 9 9 9 10 12 12 13 12 12 13 12 11
10 12 13 13 10 9 9 8 8 8 7 8 9 8 8 8 7 9 9 8 7 4 3 4 3 5 6 6 8 8 8 7 7 9 7 6 7 7 6 6 6 14 10 9 8 7 7 7 8 8 8 9 9 9 9 9 9 9 9 10 10 10 10 10 11 11 11 12 12 12 13 13 13 12
10 11 12 11 10 9 11 9 7 7 9 9 10 10 8 9 8 9 10 7 7 6 5 5 6 5 6 7 7 8 6 6 7 8 8 7 6 6 6 6 5 12 11 10 9 10 9 9 9 9 9 9 9 10 10 10 10 10 11 12 12 13 13 13 13 13 14 13 14 13 13 14 14 14
12 12 11 10 10 10 11 10 8 7 8 8 9 9 8 8 8 7 7 8 6 5 5 5 6 6 6 7 5 6 6 6 6 6 6 6 7 7 6 7 7 8 12 11 11 11 10 10 10 10 10 10 11 11 12 12 12 12 13 13 13 14 14 14 14 15 15 15 15 15 15 15 16 17
11 12 11 10 11 10 12 10 9 8 10 9 8 9 8 8 7 6 7 8 6 4 7 5 4 4 5 5 6 6 7 6 6 6 7 6 7 7 6 6 6 6 10 10 11 11 11 11 12 12 12 12 12 13 13 13 13 14 14 14 15 15 15 15 15 15 16 16 16 17 17 17 18 19
10 10 11 9 10 11 10 9 9 9 11 9 9 10 8 8 7 7 7 7 7 9 8 6 5 4 6 6 6 7 6 6 6 6 6 6 6 6 6 7 5 5 6 6 7 9 10 12 13 12 13 14 14 15 14 14 14 15 16 16 16 16 15 15 16 16 16 16 17 17 18 18 18 20
9 9 9 9 11 11 10 8 9 9 9 8 9 9 8 8 8 7 8 8 9 9 9 7 5 5 5 4 5 6 6 6 6 6 6 7 7 7 7 7 6 6 6 7 7 7 6 5 6 11 15 14 15 16 16 15 16 16 16 16 16 16 16 16 17 17 17 17 17 16 16 17 17 19
7 6 8 9 9 11 10 8 6 5 5 3 4 5 7 8 9 8 8 8 8 8 8 5 5 5 4 4 2 3 5 6 6 8 7 8 7 7 7 7 6 5 5 6 6 8 9 9 11 12 11 13 15 16 15 15 15 16 17 17 17 17 17 17 17 17 17 17 16 16 16 16 16 16
6 8 9 9 10 11 10 9 8 7 8 8 10 11 9 9 9 8 8 7 7 4 2 3 6 6 6 6 6 6 7 9 9 7 7 7 6 5 5 5 6 6 5 4 5 5 5 5 6 6 7 9 13 14 17 14 15 16 16 16 16 16 16 16 16 16 16 16 16 16 15 15 15 16
10 10 8 8 11 10 9 11 11 12 12 12 12 9 9 9 8 9 8 7 7 7 9 9 6 1 6 7 8 8 9 7 4 5 7 8 6 4 4 3 4 4 5 5 5 5 5 5 6 7 7 6 6 7 6 7 7 8 11 12 13 14 14 14 14 15 15 15 15 15 15 15 15 16
9 9 10 9 9 9 10 12 13 13 13 15 14 8 9 7 8 9 8 8 8 8 8 7 9 11 11 10 8 9 7 6 7 6 6 6 5 6 6 6 4 2 4 4 4 3 3 3 4 4 5 4 3 4 5 3 5 9 10 11 11 11 11 12 12 13 13 13 14 14 14 14 15 15
8 9 9 8 7 7 9 8 8 9 10 9 7 9 7 5 1 3 6 8 8 8 8 8 9 11 11 9 7 7 7 7 6 6 6 7 7 6 6 5 4 4 3 3 2 2 4 3 4 5 4 3 2 2 4 5 6 8 9 10 10 10 11 11 11 11 12 12 12 12 13 13 13 13
7 7 8 8 7 8 11 10 10 9 7 7 10 10 9 6 3 2 3 6 5 7 8 8 8 9 6 4 5 5 5 4 6 6 6 7 7 6 6 5 4 5 3 1 3 5 2 3 3 4 2 1 1 1 4 4 5 7 7 8 9 9 9 9 9 10 10 11 11 11 11 11 11 11
7 8 8 8 10 10 10 9 10 10 10 10 9 8 6 5 5 5 4 5 7 6 5 5 6 2 2 5 3 3 6 7 8 7 7 7 7 6 4 2 3 4 3 3 2 3 3 3 1 4 4 1 2 2 4 3 2 4 4 5 6 6 7 8 9 9 10 10 10 10 10 10 10 10
7 7 6 7 6 9 11 9 12 12 11 10 8 8 7 6 4 4 2 1 5 7 6 5 3 4 3 2 2 1 3 5 3 2 3 4 3 2 3 3 3 4 2 1 2 3 1 2 2 4 2 2 3 2 8 7 5 5 5 5 5 5 6 7 7 8 9 9 9 9 9 9 9 10
4 6 8 8 10 9 10 12 14 13 12 11 10 9 9 8 7 8 7 7 8 5 4 5 6 5 5 6 5 4 2 3 3 3 4 4 4 5 5 4 4 3 3 2 3 3 3 2 2 2 2 2 3 4 1 10 9 8 9 9 8 7 7 6 6 6 6 7 7 7 7 8 9 10
3 3 4 3 5 10 10 13 15 15 14 11 11 10 9 8 9 9 7 12 15 16 16 16 14 13 12 13 13 12 11 6 2 6 6 5 3 4 3 4 3 3 3 1 2 3 4 1 3 4 3 4 5 4 4 4 7 7 7 7 7 8 8 9 8 9 8 7 6 5 6 7 8 9
4 4 7 3 7 8 11 14 15 16 13 11 11 11 11 11 10 8 7 7 9 13 15 16 16 16 15 16 16 15 14 13 8 1 4 3 2 2 1 2 2 4 4 3 2 3 2 2 2 3 3 4 1 2 3 4 3 7 6 7 7 8 7 7 7 7 7 7 6 5 6 6 7 7
4 4 4 6 1 6 10 15 15 15 12 10 11 11 11 11 11 9 8 9 10 8 8 8 10 11 11 10 9 10 15 13 10 7 5 3 2 3 2 2 2 4 4 3 5 3 1 3 1 2 3 3 2 1 2 4 6 6 6 4 3 6 2 1 1 3 4 5 5 5 7 8 9 5
4 4 4 5 7 12 14 11 9 8 7 10 10 10 10 11 11 8 8 7 8 9 9 9 9 10 9 8 8 8 8 8 8 7 7 6 4 4 3 2 1 2 1 2 6 3 2 1 2 1 2 3 2 1 4 5 5 4 4 5 6 4 2 2 5 6 1 3 3 5 6 9 10 5
6 5 5 5 7 11 11 9 7 6 4 5 7 7 8 9 12 11 10 10 10 10 10 9 9 8 8 8 7 7 7 7 6 7 7 6 5 3 1 1 1 1 2 3 7 3 2 1 2 2 3 3 4 5 4 5 4 3 5 4 6 6 6 6 6 2 7 7 5 3 5 8 10 7
6 6 6 5 8 12 12 11 11 10 10 10 7 9 16 17 14 11 10 9 8 9 9 8 7 6 7 7 7 6 6 6 6 5 5 5 4 4 3 2 2 1 2 2 4 2 2 1 1 2 2 3 3 4 5 4 3 3 5 4 5 5 4 6 6 5 5 5 1 3 3 8 7 7
8 8 8 8 13 15 14 14 13 13 14 12 11 15 15 14 14 12 9 9 8 7 7 7 7 6 6 6 6 5 5 5 4 4 4 4 4 3 3 4 3 3 3 3 3 2 1 1 1 1 2 3 4 4 4 4 4 5 6 6 6 4 4 5 5 5 5 3 2 9 3 7 4 1
10 10 10 10 16 17 17 17 17 16 14 11 13 13 14 13 11 9 8 7 7 7 6 7 6 6 5 5 5 5 4 4 4 4 4 4 3 3 4 5 6 5 4 4 3 1 1 1 0 1 2 4 4 4 5 4 4 6 7 7 6 5 6 4 5 4 4 3 6 4 3 1 3 6
9 12 15 17 18 17 18 18 17 16 16 16 13 12 10 8 5 6 7 7 6 7 7 6 6 6 5 5 5 4 4 4 3 2 3 4 4 4 6 7 6 5 3 3 3 3 2 2 2 1 1 2 4 3 4 5 6 6 6 7 6 7 5 5 5 6 6 6 5 5 4 3 2 3
15 15 17 19 19 17 14 12 11 10 12 16 16 16 12 6 5 5 7 7 8 7 7 6 6 5 4 4 4 3 3 4 4 3 2 4 4 3 4 6 6 6 5 4 4 3 3 2 3 3 3 2 2 3 4 4 5 5 5 5 5 5 3 6 6 6 6 6 5 4 4 3 2 3
10 13 13 14 17 17 20 17 13 11 13 12 10 9 8 7 7 6 5 6 7 7 7 6 6 6 5 4 4 4 4 5 4 3 2 3 3 3 4 5 6 6 5 5 5 6 4 4 3 4 3 3 2 3 3 4 5 5 5 5 6 6 6 6 6 5 5 5 4 4 3 2 1 3
7 7 9 12 10 12 12 11 8 9 10 10 8 8 7 7 6 7 10 9 7 6 6 6 5 5 4 5 5 5 5 4 2 2 2 3 4 3 3 5 4 4 5 6 6 7 6 4 3 2 3 4 4 4 4 4 4 5 5 5 5 5 6 6 6 6 6 4 4 4 4 3 2 2
6 8 9 9 10 10 10 9 8 8 9 8 7 8 6 5 4 3 3 5 5 5 6 6 5 5 5 5 5 5 4 3 3 2 2 3 4 5 5 6 5 5 5 5 5 5 5 4 3 2 3 3 4 4 4 4 4 4 5 5 5 5 6 6 6 6 5 4 4 4 4 3 2 2
7 7 7 7 7 7 7 7 6 6 6 6 6 5 5 4 5 5 5 5 5 5 5 5 4 4 4 5 4 4 4 4 4 4 3 4 4 5 6 6 6 5 4 4 4 5 5 4 2 3 4 3 4 6 6 4 4 4 4 4 5 5 5 5 6 6 5 5 4 5 5 5 3 1
5 5 6 5 6 6 7 6 4 3 4 4 4 4 3 5 5 4 5 4 2 3 4 3 3 2 3 3 3 4 3 4 4 4 4 5 5 6 5 5 5 4 4 4 4 4 4 5 4 1 1 3 4 4 6 6 5 5 4 5 5 5 5 6 6 5 5 5 5 4 5 5 6 5
3 3 4 3 3 5 6 4 3 4 5 4 4 3 4 4 3 3 3 2 4 3 3 4 3 3 3 3 3 3 3 4 4 5 4 3 4 4 5 5 4 4 4 4 4 4 4 5 5 4 3 2 2 1 3 2 5 6 5 4 5 5 5 5 4 4 5 5 6 5 4 4 5 6
3 2 5 5 4 4 4 4 4 4 4 4 3 4 4 4 3 3 2 1 5 3 3 3 3 3 3 4 4 4 4 4 4 4 3 3 4 3 3 3 4 3 4 4 3 4 4 4 4 4 4 2 2 2 2 3 0 4 7 4 4 5 5 5 4 5 5 5 5 5 3 3 3 5
3 4 5 5 5 5 4 4 4 3 4 4 4 4 5 5 4 3 2 4 4 3 3 4 4 4 4 4 5 5 4 4 4 4 3 3 3 3 3 3 3 3 4 4 4 4 3 3 4 4 4 3 3 4 4 4 1 3 7 5 3 4 4 4 3 3 3 4 5 5 4 3 3 3
5 4 4 5 5 4 4 4 3 4 5 4 4 4 4 5 5 3 3 3 4 4 4 5 5 4 5 4 4 4 4 4 4 4 4 4 3 3 3 3 3 4 5 4 4 3 3 4 4 5 5 3 3 3 4 4 4 3 4 4 5 3 3 3 3 3 3 3 4 3 2 2 2 2
4 4 4 4 4 4 4 4 5 5 5 5 5 4 4 4 4 4 4 4 5 4 5 4 4 4 4 3 4 5 4 4 4 4 3 3 3 3 3 3 3 2 3 3 3 4 5 5 5 5 5 4 3 3 3 3 3 2 0 4 2 3 3 3 3 3 2 4 3 2 2 0 0 2
3 4 4 4 4 4 4 5 5 5 5 5 5 5 5 5 5 3 3 3 3 4 4 4 3 3 4 3 3 4 5 4 3 3 3 3 3 3 2 2 4 2 2 3 3 4 5 5 4 1 3 2 2 1 3 3 1 2 2 1 5 2 3 6 4 4 2 1 2 2 2 3 2 2
3 4 3 3 4 4 5 5 5 5 5 5 5 4 5 4 4 4 4 3 3 3 4 4 3 3 3 2 2 3 4 4 4 3 3 2 3 3 1 2 3 3 3 3 4 3 4 4 1 1 1 1 2 1 2 3 2 2 2 1 1 6 5 1 5 6 5 3 2 2 2 1 0 2
3 4 4 4 4 5 5 5 5 5 4 5 4 3 4 4 3 3 4 3 3 4 4 3 3 3 3 2 2 2 3 4 3 3 2 2 2 3 3 3 2 2 2 3 2 2 2 3 3 1 1 2 2 1 2 2 2 1 0 1 1 1 2 5 0 2 5 6 7 5 4 4 4 4
4 4 4 5 5 5 5 5 5 5 6 3 3 3 4 4 4 3 3 3 3 3 3 3 3 3 2 2 2 2 3 3 3 3 3 3 2 3 3 3 2 3 3 3 3 3 3 2 2 2 3 3 2 2 2 1 2 1 1 2 2 1 1 1 3 4 5 5 4 5 5 5 3 3
4 5 5 5 4 4 4 5 5 5 4 3 3 3 4 4 4 3 3 2 3 2 2 3 3 3 2 2 2 3 3 1 1 2 2 2 2 3 3 3 3 3 3 3 3 3 3 3 3 3 3 3 2 2 2 2 2 2 2 1 1 2 2 2 1 1 1 2 4 1 3 3 1 3
Wind_Direction
204 196 199 210 211 201 195 202 199 203 207 208 201 201 202 194 185 181 205 210 215 187 203 195 187 199 191 183 175 180 205 163 169 197 206 193 190 177 185 181 179 182 185 186 185 183 176 175 167 161 163 164 167 171 170 165 165 171 172 173 154 138 118 106 108 25 290 195 128 125 141 197 216 221
208 204 204 210 220 203 193 196 195 194 199 204 204 208 214 211 210 190 205 209 208 198 188 211 179 181 190 183 179 191 207 147 189 205 206 201 203 159 190 187 187 186 187 187 189 191 190 191 184 179 177 182 184 184 181 178 180 190 197 200 190 178 177 176 179 203 230 198 166 180 198 216 224 230
204 205 211 212 216 200 187 191 190 189 194 203 205 210 217 213 222 209 221 228 172 210 187 198 202 171 185 186 181 191 210 164 194 212 207 216 149 156 191 199 196 197 193 194 195 197 202 203 197 193 191 197 198 199 197 193 197 202 206 204 198 192 193 191 197 208 220 216 207 210 212 224 228 229
203 197 201 212 217 206 191 194 188 185 194 202 209 210 211 208 210 216 226 236 187 184 206 182 184 168 172 181 187 193 200 153 185 217 213 184 117 201 204 188 209 205 204 202 207 206 206 212 211 208 206 209 211 211 210 206 207 209 211 212 209 206 204 203 204 216 223 224 222 224 223 225 228 227
206 204 206 210 211 195 198 198 191 189 189 195 206 213 208 209 197 211 222 229 206 134 171 172 172 165 168 184 201 198 193 181 190 214 219 200 204 211 219 200 190 207 207 212 215 220 224 223 226 223 219 220 222 223 222 219 217 219 220 223 222 219 217 216 214 221 229 229 230 228 227 227 227 224
192 199 209 215 202 196 203 199 200 190 188 195 203 206 211 208 199 207 223 224 223 174 153 185 171 162 191 201 188 203 196 194 190 198 203 202 210 215 218 221 194 187 204 209 214 225 228 232 233 237 229 229 233 236 239 236 236 237 233 231 232 230 226 222 221 221 226 231 233 230 226 224 224 224
187 198 208 209 202 201 206 205 203 193 198 200 205 206 205 212 204 205 219 222 215 208 176 178 181 185 180 211 188 201 205 202 196 203 205 204 201 214 217 219 231 165 192 197 211 218 220 225 231 233 237 233 230 235 238 238 237 237 237 234 232 232 231 229 228 226 225 226 228 231 227 222 220 223
197 197 200 203 194 191 194 194 193 198 198 199 206 208 200 204 199 196 206 216 228 206 193 177 205 176 176 200 203 186 194 193 198 210 211 204 208 209 207 219 236 174 182 196 210 216 218 219 222 227 232 232 231 233 234 235 235 236 237 238 238 237 236 234 233 231 229 228 229 228 228 222 222 225
198 201 202 198 190 189 193 195 201 197 198 201 203 207 201 206 200 189 201 213 203 205 226 185 182 161 183 188 194 192 195 192 201 205 215 212 214 213 215 224 224 199 173 199 213 217 217 218 220 225 228 230 233 234 236 236 236 238 239 239 239 239 238 237 237 236 233 232 230 230 228 225 222 226
198 202 204 196 189 193 191 194 197 200 198 198 202 207 208 203 191 190 195 203 201 206 223 205 165 187 183 184 196 193 202 199 196 202 209 214 218 213 217 222 219 219 211 211 208 212 222 221 223 226 227 232 237 240 239 238 239 241 243 243 243 243 243 242 241 240 238 236 233 231 231 228 222 224
199 203 204 188 188 194 195 193 193 193 194 192 198 199 200 203 193 191 202 202 204 212 217 214 210 187 190 197 188 183 190 200 214 209 203 219 210 211 218 224 213 212 220 220 216 237 257 258 237 213 221 232 240 245 244 241 241 245 248 251 251 250 248 246 245 243 241 240 239 237 235 235 229 225
202 184 189 181 193 199 200 200 198 209 222 202 171 211 208 203 197 198 198 201 206 210 215 187 228 220 185 178 198 147 175 197 215 220 219 222 209 205 210 218 218 207 210 226 215 205 221 236 240 246 241 231 236 242 251 250 248 247 249 250 249 249 250 249 249 248 247 246 244 241 239 237 236 231
182 188 204 206 203 205 202 178 136 141 160 186 206 216 210 205 200 203 199 199 204 188 219 184 215 220 206 202 184 190 195 203 214 196 202 229 227 213 201 207 209 223 225 229 231 234 217 231 242 243 242 229 215 233 232 250 249 247 248 248 249 251 251 252 252 252 251 250 248 245 243 239 236 235
199 196 207 213 209 195 169 135 155 170 185 192 204 202 198 200 201 198 199 197 187 182 203 211 170 219 244 214 200 205 210 207 190 169 190 220 217 204 227 228 202 187 213 229 238 233 206 228 247 241 247 250 217 254 228 240 249 247 237 243 249 252 254 255 256 255 254 252 250 247 244 239 235 234
199 197 201 210 183 162 141 158 160 173 188 198 210 202 203 210 204 197 196 200 193 200 211 195 152 203 227 222 207 215 207 193 198 204 199 215 204 212 214 221 150 179 205 209 241 240 186 232 254 250 250 243 248 259 256 294 277 276 281 275 269 265 261 259 257 257 255 253 251 248 244 237 233 232
193 189 192 194 176 177 179 167 158 168 178 175 149 143 153 167 242 314 220 206 205 210 214 205 190 203 219 223 198 204 201 197 192 200 197 203 212 208 215 221 213 117 180 177 227 235 151 227 262 265 261 255 269 317 353 334 292 284 281 280 278 276 272 268 267 264 262 259 257 253 248 241 236 230
184 190 188 174 169 180 147 151 156 153 132 104 114 114 102 75 94 206 270 311 273 209 211 213 213 213 217 238 243 211 199 182 194 189 202 204 208 213 216 217 173 142 158 229 257 268 182 184 230 256 266 315 355 282 197 229 278 288 293 293 288 284 281 280 276 272 268 264 260 256 250 244 237 228
183 182 184 168 171 168 169 159 151 147 143 143 140 143 142 128 103 85 101 213 262 271 229 218 219 123 143 227 261 172 192 200 208 197 208 196 200 205 213 132 131 115 177 209 211 248 198 149 261 300 309 336 331 324 85 74 334 300 286 287 292 293 293 289 285 279 274 269 263 257 250 240 229 218
182 175 163 151 157 172 174 161 153 149 150 146 136 124 110 98 80 55 40 212 204 204 221 223 140 105 105 70 49 118 183 213 228 228 218 184 189 145 107 104 106 112 71 339 239 257 117 92 275 269 270 324 311 320 113 91 93 52 40 20 358 339 314 300 289 281 275 269 261 254 247 234 219 208
164 174 179 172 169 168 164 150 154 149 144 138 129 117 112 102 84 63 35 17 38 62 98 95 96 89 82 81 79 49 83 138 130 129 120 130 149 162 168 153 123 97 62 19 281 268 277 109 282 281 287 305 318 337 17 95 64 52 47 40 26 15 358 341 326 305 287 273 263 254 236 219 208 200
142 153 187 182 159 151 152 152 154 150 146 137 131 126 119 109 98 90 68 57 70 79 82 87 91 96 90 77 67 60 42 32 50 130 123 118 141 156 183 126 143 131 113 90 301 283 273 6 346 316 322 339 329 331 19 30 70 52 63 52 41 21 11 359 346 339 327 318 302 271 230 210 200 187
125 78 43 111 163 169 151 156 158 160 151 141 137 133 126 119 113 112 112 100 86 88 88 85 82 78 77 75 67 56 49 38 13 62 112 105 98 92 75 130 124 127 135 101 354 267 275 346 316 319 312 307 251 10 15 3 140 157 132 108 67 36 20 359 343 332 322 303 291 259 213 192 171 175
119 117 83 30 49 140 140 157 165 170 160 141 146 142 130 126 124 129 135 124 119 111 98 87 83 73 65 65 68 61 56 48 46 54 91 146 147 122 89 88 161 181 145 90 345 286 312 329 3 352 323 295 329 354 334 336 355 6 0 7 131 100 47 351 306 316 286 287 260 227 196 171 182 209
122 115 111 77 67 123 139 154 171 196 176 143 146 145 137 133 132 142 132 116 113 104 99 95 89 88 85 80 72 69 61 54 46 41 40 46 67 102 117 121 256 278 87 78 338 308 296 262 280 0 293 296 288 340 330 319 331 348 0 355 339 27 332 234 178 157 124 277 238 216 193 173 202 227
125 118 92 86 81 114 123 129 133 124 128 125 134 138 140 130 128 128 117 105 106 106 103 100 100 100 96 88 82 78 69 63 58 55 45 42 36 40 96 159 174 198 92 63 312 289 284 325 287 299 278 277 286 291 306 312 301 327 2 353 347 357 350 348 341 343 145 168 178 169 187 180 208 253
82 81 84 90 93 96 98 96 93 90 86 76 75 85 101 111 123 122 114 115 111 113 114 107 99 96 91 87 81 75 71 63 60 58 63 58 49 37 17 354 329 265 132 63 325 320 284 235 346 310 297 291 289 287 296 292 295 324 329 335 345 342 344 335 334 339 348 360 19 96 123 179 200 239
78 71 71 79 86 88 89 88 89 89 89 83 99 109 108 109 113 118 117 114 113 105 101 101 98 92 88 89 85 78 77 71 56 60 56 54 54 56 46 31 19 14 44 47 41 19 333 32 53 317 310 294 286 290 274 307 322 331 315 338 337 336 343 336 330 342 346 352 26 107 144 160 196 203
85 84 75 77 79 80 79 77 74 71 72 86 95 99 106 110 107 101 103 97 99 95 88 85 84 81 78 85 85 74 65 63 58 55 49 48 49 70 89 82 76 67 63 58 57 43 348 333 22 3 303 306 305 312 317 315 316 324 333 344 331 340 343 346 340 338 331 321 322 338 331 290 196 199
64 87 94 86 80 77 76 75 75 69 64 63 61 66 77 85 77 94 104 107 99 86 80 79 76 70 60 59 59 55 64 64 51 51 79 79 71 87 90 84 79 73 63 41 45 44 35 10 7 345 271 313 304 317 314 320 325 326 348 333 333 345 343 353 337 334 332 328 334 329 323 304 232 211
74 72 72 72 69 63 62 65 66 70 67 60 55 47 34 32 56 84 101 93 88 86 87 82 83 82 76 67 62 53 57 55 37 16 65 113 116 131 120 102 87 76 65 49 34 27 28 19 10 335 319 346 347 329 329 324 318 326 333 339 342 313 347 346 340 338 337 337 342 337 333 316 254 195
62 66 72 82 82 80 70 65 61 65 69 64 53 52 46 34 22 23 44 78 93 102 104 104 100 98 97 97 87 75 71 64 43 13 8 82 87 98 107 105 97 92 84 75 57 30 19 15 7 0 357 339 331 360 352 320 317 332 335 351 341 344 348 344 348 355 354 344 343 355 341 336 299 212
54 68 70 68 71 73 68 62 54 53 57 58 57 52 47 50 52 63 73 71 70 80 90 96 97 98 105 100 92 85 75 70 46 7 30 55 73 58 98 94 86 91 84 62 52 40 29 23 4 18 24 14 1 352 316 314 341 341 343 352 344 358 5 2 2 10 12 347 347 2 8 346 309 245
47 50 56 58 60 65 71 68 62 57 61 55 50 47 44 40 36 22 14 69 74 86 99 100 104 104 102 97 94 96 86 69 51 1 66 45 70 69 71 75 68 58 58 55 45 36 27 39 55 22 37 49 33 3 345 340 343 355 351 356 358 4 15 19 21 19 10 10 18 15 13 6 330 299
72 57 58 55 68 74 81 83 79 76 79 80 69 52 49 45 49 43 45 55 73 73 86 96 96 98 97 92 87 88 90 83 71 45 43 62 60 80 77 79 75 69 64 61 46 25 20 23 95 127 125 98 63 43 15 1 354 0 5 16 4 12 18 18 28 34 31 27 14 12 24 23 39 6
61 74 75 73 72 76 81 82 74 75 80 75 76 68 55 51 52 46 57 61 77 81 88 84 82 84 87 93 90 90 82 84 80 74 63 65 60 66 71 78 77 72 70 62 46 31 8 12 360 5 146 156 151 102 30 2 15 10 18 21 23 15 15 17 9 19 20 28 14 14 11 26 38 39
52 61 84 66 63 82 81 71 81 83 87 90 98 101 87 67 48 60 74 66 84 89 86 90 90 91 95 97 92 85 79 75 72 67 64 61 68 75 77 73 68 65 55 47 38 31 21 17 8 6 357 337 324 242 116 34 9 16 17 14 16 17 3 356 357 12 16 16 16 13 13 12 16 16
78 68 82 88 70 79 89 84 92 98 99 102 93 96 101 99 88 76 80 53 78 74 87 103 98 96 92 87 80 69 66 72 77 73 74 73 68 71 82 79 67 59 57 57 40 32 27 25 18 5 350 334 4 1 20 120 104 331 17 7 3 11 357 349 359 16 17 16 13 14 8 7 9 15
107 101 97 101 106 100 97 102 102 103 102 102 101 97 97 105 110 122 139 99 94 97 93 84 80 77 78 84 89 87 82 79 79 77 70 64 67 63 55 53 55 50 49 47 43 40 30 33 29 27 12 2 358 358 359 353 60 90 65 358 0 348 1 356 3 17 11 17 25 20 15 26 32 18
107 104 104 110 110 113 110 104 103 104 108 106 103 105 109 112 111 105 95 92 90 89 85 79 72 68 69 66 70 78 82 84 81 77 74 68 62 61 54 54 59 58 53 49 52 53 51 41 38 30 24 19 9 8 349 337 341 348 84 63 345 338 12 358 6 9 21 12 13 28 60 96 93 75
66 81 93 104 105 105 109 111 105 105 102 102 99 103 107 108 107 102 95 88 80 72 77 80 84 84 76 75 90 94 87 77 70 69 68 74 69 53 52 51 51 53 68 56 46 53 50 42 30 13 8 6 353 335 321 311 290 286 37 112 24 349 350 356 13 5 22 15 354 355 21 2 92 153
92 89 87 90 98 98 101 102 103 100 97 96 96 91 94 98 98 91 92 92 99 97 91 83 71 67 70 56 51 73 82 83 84 85 85 81 71 59 1 315 73 41 53 55 41 38 35 20 43 94 262 316 307 267 242 240 328 16 5 66 123 99 320 319 344 1 31 4 8 24 28 32 12 48
78 88 86 89 94 97 99 102 104 106 107 107 107 103 93 86 84 103 97 84 80 84 91 88 84 84 77 65 68 75 76 74 77 75 64 61 88 94 92 56 54 40 34 40 28 24 14 13 21 202 218 243 259 278 359 16 358 15 13 322 140 179 192 351 343 344 351 0 2 28 5 25 328 38
77 88 91 89 93 97 98 97 101 104 105 104 103 105 108 110 117 112 100 96 92 93 94 92 86 85 84 78 67 67 82 79 74 75 76 72 59 60 58 50 38 26 32 33 33 24 17 18 13 358 334 3 28 329 26 26 11 18 53 97 45 16 128 138 78 45 50 33 15 6 354 339 341 6
81 88 93 100 101 101 102 103 101 104 107 105 106 110 109 104 93 80 86 90 96 97 94 95 90 88 92 90 91 82 77 74 70 68 71 67 57 43 38 34 32 26 28 35 25 28 32 34 46 14 31 36 28 38 51 28 49 28 24 31 356 353 2 131 156 169 158 123 61 10 348 311 304 333
85 92 95 94 97 100 102 105 106 108 109 114 111 100 99 97 96 89 79 80 88 94 103 108 105 102 102 102 88 85 80 71 62 74 70 67 59 52 43 31 39 42 38 21 16 40 43 47 50 46 50 53 50 58 55 43 41 50 43 19 2 17 30 37 34 51 61 98 103 79 335 342 72 116